This demonstration page uses our WeatherBlox Daily Observations layout. Learn more.

39.08367, -84.50855

Hourly Observations for January 9, 2019

Temp ( °F °C ) Dew Point ( °F °C ) Humidity (%) Winds ( mph kmh ) Pressure ( in mb ) Visibility ( mi km ) Precip ( " mm )
12:53 am 00:53 Mostly Cloudy 43 6.1 25 -3.9 49 49 WSW 15 24 30 1016 10 16.09344 0 0
1:53 am 01:53 Cloudy 43 6.1 23 -5 45 45 W 13 20 30 1016 10 16.09344 0 0
2:53 am 02:53 Cloudy 42 5.6 24 -4.4 49 49 W 17 28 30.03 1017 10 16.09344 0 0
3:53 am 03:53 Cloudy 37 2.8 20 -6.7 50 50 WNW 16 26 30.06 1018 10 16.09344 0 0
4:53 am 04:53 Partly Cloudy 33 0.6 19 -7.2 56 56 WNW 18 30 30.06 1018 10 16.09344 0 0
5:53 am 05:53 Cloudy 32 0 17 -8.3 54 54 W 21 33 30.09 1019 10 16.09344 0 0
6:53 am 06:53 Cloudy 30 -1.1 15 -9.4 54 54 WNW 14 22 30.12 1020 10 16.09344 0 0
7:53 am 07:53 Cloudy 29 -1.7 16 -8.9 58 58 W 18 30 30.15 1021 10 16.09344 0 0
8:53 am 08:53 Cloudy 29 -1.7 15 -9.4 56 56 WNW 14 22 30.15 1021 10 16.09344 0 0
9:53 am 09:53 Cloudy 29 -1.7 14 -10 54 54 WNW 9 15 30.21 1023 10 16.09344 0 0
10:53 am 10:53 Cloudy 29 -1.7 14 -10 54 54 W 14 22 30.21 1023 10 16.09344 0 0
11:53 am 11:53 Cloudy 29 -1.7 15 -9.4 56 56 WNW 9 15 30.18 1022 10 16.09344 0 0
12:53 pm 12:53 Cloudy 29 -1.7 16 -8.9 58 58 WNW 13 20 30.18 1022 10 16.09344 0 0
1:53 pm 13:53 Cloudy 29 -1.7 15 -9.4 56 56 W 14 22 30.18 1022 10 16.09344 0 0
2:53 pm 14:53 Cloudy 28 -2.2 15 -9.4 58 58 W 15 24 30.21 1023 10 16.09344 0 0
3:53 pm 15:53 Cloudy with Light Snow 27 -2.8 17 -8.3 66 66 WNW 13 20 30.24 1024 5 8.04672 0.001 0.001
4:53 pm 16:53 Cloudy 26 -3.3 16 -8.9 66 66 NNW 12 19 30.27 1025 10 16.09344 0.001 0.001
5:53 pm 17:53 Cloudy 26 -3.3 13 -10.6 57 57 NW 10 17 30.27 1025 10 16.09344 0 0
6:53 pm 18:53 Cloudy 25 -3.9 14 -10 63 63 WNW 10 17 30.27 1025 10 16.09344 0.001 0.001
7:53 pm 19:53 Cloudy with Light Snow 25 -3.9 14 -10 63 63 W 8 13 30.27 1025 8 12.874752 0.001 0.001
8:53 pm 20:53 Cloudy 25 -3.9 10 -12.2 53 53 NW 13 20 30.3 1026 10 16.09344 0.001 0.001
9:53 pm 21:53 Cloudy with Light Snow 24 -4.4 14 -10 65 65 VRB 7 11 30.3 1026 9 14.484096 0.001 0.001
10:12 pm 22:12 Cloudy with Light Snow 24 -4.4 14 -10 65 65 WNW 9 15 30.33 1027 5 8.04672 0.001 0.001
10:32 pm 22:32 Cloudy with Light Snow 23 -5 16 -8.9 74 74 W 7 11 30.33 1027 3 4.828032 0.001 0.001
10:49 pm 22:49 Cloudy with Haze 25 -4 16 -9 69 69 NW 9 15 30.36 1028 3 4.828032 0.001 0.001
10:53 pm 22:53 Cloudy 24 -4.4 15 -9.4 68 68 VRB 6 9 30.33 1027 10 16.09344 0.001 0.001
11:53 pm 23:53 Cloudy 24 -4.4 14 -10 65 65 WNW 12 19 30.33 1027 9 14.484096 0.001 0.001

Powered by AerisWeather